Regional Weather Roundup
Issued by NWS Huntsville, AL

Home | Current Version | Previous Version | Text Only | Print | Product List | Glossary On
Versions: 1 2 3 4 5 6 7 8 9 10 11 12 13 14 15 16 17 18 19 20 21 22 23 24 25 26 27 28 29 30 31 32 33 34
000
ASUS44 KHUN 222110
RWRHUN

WEATHER ROUNDUP FOR THE TENNESSEE VALLEY
NATIONAL WEATHER SERVICE HUNTSVILLE AL
400 PM CDT WED OCT 22 2014

ALZ001>004-222200-
NORTHWEST ALABAMA

CITY           SKY/WX    TMP DP  RH WIND       PRES   REMARKS
SHOALS AIRPORT SUNNY     68  38  33 NE9       30.16F
SHOALS TVA RES   N/A     66 N/A N/A MISG        N/A
$$

ALZ005>007-016-222200-
NORTH CENTRAL ALABAMA

CITY           SKY/WX    TMP DP  RH WIND       PRES   REMARKS
DECATUR AP     SUNNY     67  39  35 N12       30.15S
HUNTSVILLE AP  SUNNY     69  39  33 NE13      30.14S
HUN NWS/UAH      N/A     66  38  35 N7          N/A
MERIDIANVILLE  SUNNY     66  34  30 N12       30.14F
VINEMONT AP    FAIR      65  39  38 N13       30.15F
$$

ALZ008>010-222200-
NORTHEAST ALABAMA

CITY           SKY/WX    TMP DP  RH WIND       PRES   REMARKS
ALBERTVILLE    SUNNY     64  46  52 NE10      30.12S
FORT PAYNE     SUNNY     64  32  29 NE10G17   30.11F
SCOTTSBORO AP  SUNNY     66  41  39 E6        30.13S
SCOTTSBORO HCN   N/A     66 N/A N/A MISG        N/A
VALLEY HEAD      N/A     63 N/A N/A MISG        N/A
$$

TNZ076-096-097-222200-
SOUTHEASTERN MIDDLE TENNESSEE

CITY           SKY/WX    TMP DP  RH WIND       PRES   REMARKS
TULLAHOMA      SUNNY     61  39  44 NE9       30.17S
WINCHESTER     SUNNY     61  41  48 N10       30.16S
$$

...SURROUNDING SITES...

CITY           SKY/WX    TMP DP  RH WIND       PRES   REMARKS
ATLANTA        SUNNY     70  37  29 N6        30.05F
ANNISTON       SUNNY     70  39  32 N9        30.09F
BIRMINGHAM     SUNNY     69  36  29 NE10      30.13R
CHATTANOOGA    SUNNY     64  41  42 N12       30.14F
CORINTH        FAIR      66  41  39 N9        30.16S
DALTON         SUNNY     61  43  51 N13       30.12F
GADSDEN        SUNNY     68  39  34 N10       30.10F
GOLDEN TRNGL   SUNNY     70  43  37 NE12      30.12F
HALEYVILLE     FAIR      65  40  39 NE12      30.16F HAZE
JACKSON TN     SUNNY     67  41  38 NE8       30.19F
MEMPHIS        SUNNY     69  41  36 N9        30.18F
NASHVILLE      SUNNY     63  41  44 NE9       30.20F
OXFORD MS      FAIR      66  43  42 NE9       30.18S
ROME           SUNNY     66  41  40 N14       30.09F
SAVANNAH       SUNNY     66  41  39 N9        30.17S
TUPELO         SUNNY     68  43  40 NE12      30.15S
TUSCALOOSA     SUNNY     71  39  31 N12       30.11F
$$

...GULF COAST WEATHER...

CITY           SKY/WX    TMP DP  RH WIND       PRES   REMARKS
GULFPORT       SUNNY     79  50  36 N9        30.01F
PASCAGOULA     SUNNY     79  49  34 N9        30.02S
MOBILE         SUNNY     77  51  40 NE10      30.03F
GULF SHORES    CLEAR     78  51  39 N5        30.00F
PENSACOLA      SUNNY     79  50  36 N9        29.99F
DESTIN         SUNNY     79  51  37 N9        29.99F
PANAMA CITY    SUNNY     80  55  42 N8        29.98F
APPALACHICOLA  SUNNY     82  52  35 N7        29.97F
$$




USA.gov is the U.S. government's official web portal to all federal, state and local government web resources and services.